#timestamp,LO_Frequency,Hit,Temp,Hum 
1487091615.4,286047003.7,N,0.0,0.0
1487091635.2,286047005.9,N,0.0,0.0
1487091655.1,286047006.9,N,0.0,0.0
1487091656.0,286047006.9,N,0.0,0.0
1487091675.8,286047007.4,N,0.0,0.0
1487091695.6,286047006.7,N,0.0,0.0
1487091715.5,286047005.4,N,0.0,0.0
1487091735.3,286047006.9,N,0.0,0.0
1487091755.1,286047007.0,N,0.0,0.0
1487091775.9,286047006.1,N,0.0,0.0
1487091795.7,286047009.5,N,0.0,0.0
1487091815.5,286047009.4,N,0.0,0.0
1487091835.4,286047010.2,N,0.0,0.0
1487091855.2,286047011.3,N,0.0,0.0
1487091875.0,286047013.9,Y,0.0,0.0
1487091875.9,286047013.9,Y,0.0,0.0
1487091895.8,286046993.8,N,0.0,0.0
1487091915.6,286046991.8,N,0.0,0.0
1487091935.4,286046995.6,N,0.0,0.0
1487091955.3,286046993.3,N,0.0,0.0
1487091975.1,286046993.3,N,0.0,0.0
1487091976.0,286046993.3,N,0.0,0.0
1487091995.8,286046993.4,N,0.0,0.0
1487092015.7,286046994.0,N,0.0,0.0
1487092035.5,286046995.4,N,0.0,0.0
1487092055.3,286046996.1,N,0.0,0.0
1487092075.2,286046997.8,N,0.0,0.0
1487092095.9,286046996.7,N,0.0,0.0
1487092115.7,286046998.0,N,0.0,0.0
1487092135.6,286046997.6,N,0.0,0.0
1487092155.4,286046997.3,N,0.0,0.0
1487092175.2,286046998.6,N,0.0,0.0
1487092195.1,286046998.1,N,0.0,0.0
1487092196.0,286046998.1,N,0.0,0.0
1487092215.8,286046998.2,N,0.0,0.0
1487092235.6,286046999.7,N,0.0,0.0
1487092255.5,286046998.7,N,0.0,0.0
1487092275.3,286047003.3,N,0.0,0.0
1487092295.1,286047007.9,N,0.0,0.0
1487092315.9,286047009.9,N,0.0,0.0
1487092335.7,286047014.5,N,0.0,0.0
1487092355.5,286047019.9,Y,0.0,0.0
1487092375.4,286047019.6,Y,0.0,0.0
1487092395.2,286047014.9,N,0.0,0.0
1487092415.0,286047016.6,N,0.0,0.0
1487092415.9,286047016.6,N,0.0,0.0
1487092435.8,286047017.1,N,0.0,0.0
1487092455.6,286047016.7,N,0.0,0.0
1487092475.4,286047018.6,N,0.0,0.0
1487092495.3,286047016.3,N,0.0,0.0
1487092515.1,286047014.6,N,0.0,0.0
1487092516.0,286047014.6,N,0.0,0.0
1487092535.8,286047011.4,N,0.0,0.0
1487092555.7,286047006.7,N,0.0,0.0
1487092575.5,286047005.2,N,0.0,0.0
1487092595.3,286047004.9,N,0.0,0.0
1487092615.2,286047005.9,N,0.0,0.0
1487092635.9,286046999.7,N,0.0,0.0
1487092655.7,286047000.4,N,0.0,0.0
1487092675.6,286047001.2,N,0.0,0.0
1487092695.4,286047000.0,N,0.0,0.0
1487092715.2,286047000.1,N,0.0,0.0
1487092735.0,286046998.9,N,0.0,0.0
1487092736.0,286046998.9,N,0.0,0.0
1487092755.8,286046996.7,N,0.0,0.0
1487092775.6,286046992.3,N,0.0,0.0
1487092795.4,286046990.7,N,0.0,0.0
1487092815.3,286046987.2,N,0.0,0.0
1487092835.1,286046986.7,N,0.0,0.0
1487092855.8,286046987.4,N,0.0,0.0
1487092875.7,286046986.5,N,0.0,0.0
1487092895.5,286046988.3,N,0.0,0.0
1487092915.3,286046987.1,N,0.0,0.0
1487092935.2,286046985.0,N,0.0,0.0
1487092955.9,286046987.7,N,0.0,0.0
1487092975.7,286046992.5,N,0.0,0.0
1487092995.6,286046993.0,N,0.0,0.0
1487093015.4,286046991.5,N,0.0,0.0
1487093035.2,286046989.6,N,0.0,0.0
1487093055.1,286046987.8,N,0.0,0.0
1487093056.0,286046987.8,N,0.0,0.0
1487093075.8,286046988.3,N,0.0,0.0
1487093095.6,286046985.6,N,0.0,0.0
1487093115.5,286046982.5,N,0.0,0.0
1487093135.3,286046980.9,N,0.0,0.0
1487093155.1,286046979.9,N,0.0,0.0
1487093175.9,286046977.5,N,0.0,0.0
1487093195.7,286046979.8,N,0.0,0.0
1487093215.5,286046977.0,N,0.0,0.0
1487093235.4,286046976.0,N,0.0,0.0
1487093255.2,286046978.8,N,0.0,0.0
1487093275.0,286046978.6,N,0.0,0.0
1487093275.9,286046978.6,N,0.0,0.0
1487093295.8,286046978.2,N,0.0,0.0
1487093315.6,286046978.7,N,0.0,0.0
1487093335.4,286046977.0,N,0.0,0.0
1487093355.2,286046979.7,N,0.0,0.0
1487093375.1,286046979.1,N,0.0,0.0
1487093376.0,286046979.1,N,0.0,0.0
1487093395.8,286046978.5,N,0.0,0.0
1487093415.6,286046980.2,N,0.0,0.0
1487093435.5,286046975.8,N,0.0,0.0
1487093455.3,286046978.3,N,0.0,0.0
1487093475.1,286046977.8,N,0.0,0.0
1487093495.9,286046976.9,N,0.0,0.0
1487093515.7,286046975.0,N,0.0,0.0
1487093535.5,286046972.7,N,0.0,0.0
1487093555.4,286046973.5,N,0.0,0.0
1487093575.2,286046973.9,N,0.0,0.0
1487093595.0,286046971.7,N,0.0,0.0
1487093595.9,286046971.7,N,0.0,0.0
1487093615.8,286046971.8,N,0.0,0.0
1487093635.6,286046972.3,N,0.0,0.0
1487093655.4,286046969.3,N,0.0,0.0
1487093675.3,286046973.4,N,0.0,0.0
1487093695.1,286046973.2,N,0.0,0.0
1487093696.0,286046973.2,N,0.0,0.0
1487093715.8,286046976.5,N,0.0,0.0
1487093735.7,286046974.9,N,0.0,0.0
1487093755.5,286046975.0,N,0.0,0.0
1487093775.3,286046972.6,N,0.0,0.0
1487093795.2,286046973.7,N,0.0,0.0
1487093815.9,286046973.7,N,0.0,0.0
1487093835.7,286046974.4,N,0.0,0.0
1487093855.6,286046974.2,N,0.0,0.0
1487093875.4,286046977.1,N,0.0,0.0
1487093895.2,286046978.3,N,0.0,0.0
1487093915.0,286046974.7,N,0.0,0.0
1487093916.0,286046974.7,Y,0.0,0.0
1487093935.8,286046993.7,N,0.0,0.0
1487093955.6,286046996.4,N,0.0,0.0
1487093975.5,286046991.9,N,0.0,0.0
1487093995.3,286046994.6,N,0.0,0.0
1487094015.1,286046993.3,N,0.0,0.0
1487094035.9,286046992.1,N,0.0,0.0
1487094055.7,286046992.0,N,0.0,0.0
1487094075.5,286046994.5,N,0.0,0.0
1487094095.3,286046994.8,N,0.0,0.0
1487094115.2,286046995.4,N,0.0,0.0
1487094135.0,286046996.2,N,0.0,0.0
1487094135.9,286046996.2,N,0.0,0.0
1487094155.7,286046996.6,N,0.0,0.0
1487094175.6,286046995.7,N,0.0,0.0
1487094195.4,286046998.6,N,0.0,0.0
1487094215.2,286046996.6,N,0.0,0.0
1487094235.1,286046993.5,N,0.0,0.0
1487094236.0,286046993.5,N,0.0,0.0
1487094255.8,286046995.8,N,0.0,0.0
1487094275.6,286046993.4,N,0.0,0.0
1487094295.5,286046992.1,N,0.0,0.0
1487094315.3,286046993.7,N,0.0,0.0
1487094335.1,286046995.0,N,0.0,0.0
1487094355.9,286046996.4,N,0.0,0.0
1487094375.7,286046994.4,N,0.0,0.0
1487094395.5,286046988.5,N,0.0,0.0
1487094415.4,286046991.3,N,0.0,0.0
1487094435.2,286046991.5,N,0.0,0.0
1487094455.0,286046989.8,N,0.0,0.0
1487094455.9,286046989.8,N,0.0,0.0
1487094475.8,286046991.1,N,0.0,0.0
1487094495.6,286046988.5,N,0.0,0.0
1487094515.4,286046988.7,N,0.0,0.0
1487094535.3,286046987.8,N,0.0,0.0
1487094555.1,286046988.1,N,0.0,0.0
1487094556.0,286046988.1,N,0.0,0.0
1487094575.8,286046988.2,N,0.0,0.0
1487094595.7,286046986.9,N,0.0,0.0
1487094615.5,286046989.6,N,0.0,0.0
1487094635.3,286046989.3,N,0.0,0.0
1487094655.1,286046991.2,N,0.0,0.0
1487094675.9,286046992.5,N,0.0,0.0
1487094695.7,286046992.0,N,0.0,0.0
1487094715.5,286046994.3,N,0.0,0.0
1487094735.4,286046994.9,N,0.0,0.0
1487094755.2,286046993.4,N,0.0,0.0
1487094775.0,286046998.0,N,0.0,0.0
1487094775.9,286046998.0,N,0.0,0.0
1487094795.8,286046999.3,N,0.0,0.0
1487094815.6,286047000.9,N,0.0,0.0
1487094835.4,286047003.0,N,0.0,0.0
1487094855.3,286047010.4,N,0.0,0.0
1487094875.1,286047008.2,N,0.0,0.0
1487094895.8,286047012.4,N,0.0,0.0
1487094915.7,286047015.4,N,0.0,0.0
1487094935.5,286047017.7,N,0.0,0.0
1487094955.3,286047017.6,N,0.0,0.0
1487094975.2,286047021.7,N,0.0,0.0
1487094995.9,286047021.4,N,0.0,0.0
1487095015.7,286047021.1,N,0.0,0.0
1487095035.6,286047021.4,N,0.0,0.0
1487095055.4,286047022.7,N,0.0,0.0
1487095075.2,286047024.8,N,0.0,0.0
1487095095.0,286047026.7,N,0.0,0.0
1487095096.0,286047026.7,N,0.0,0.0
1487095115.8,286047023.0,N,0.0,0.0
1487095135.6,286047019.4,N,0.0,0.0
1487095155.4,286047021.7,N,0.0,0.0
1487095175.3,286047022.9,N,0.0,0.0
1487095195.1,286047023.5,N,0.0,0.0
